Change the Weather History Date:

Friday, May 23, 2014

  Actual Average Record
Temperature  
Mean Temperature 74 °F -  
Max Temperature 84 °F 83 °F 95 °F (2006)
Min Temperature 64 °F 65 °F 57 °F (1998)
Cooling Degree Days 9    
Growing Degree Days 24 (Base 50)    
Moisture  
Dew Point 49 °F    
Average Humidity 41    
Maximum Humidity 59    
Minimum Humidity 25    
Precipitation  
Precipitation 0.00 in - - ()
Sea Level Pressure  
Sea Level Pressure 29.92 in    
Wind  
Wind Speed 5 mph ()    
Max Wind Speed 13 mph    
Max Gust Speed -    
Visibility 6.2 miles    
Events      
Averages and records for this station are not official NWS values.
T = Trace of Precipitation, MM = Missing Value Source: Averaged Metar Reports

Daily Weather History Graph

Daily Weather History Graph

Search for Another Location

Airport or City:

Trip Planner

Search our weather history database for the weather conditions in past years. The results will help you decide how hot, cold, wet, or windy it might be!

Date:

Astronomy

May. 23, 2014 Rise Set
Actual Time 6:09 AM EEST 8:35 PM EEST
Civil Twilight 5:39 AM EEST 9:06 PM EEST
Nautical Twilight 5:01 AM EEST 9:43 PM EEST
Astronomical Twilight 4:20 AM EEST 10:25 PM EEST
Moon 2:47 AM EEST (5/23) 3:13 PM EEST (5/23)
Length of Visible Light 15h 26m
Length of Day
14h 26m
Waning Crescent, 30% of the Moon is Illuminated
May 23
Waning Crescent
May 28
New
Jun 5
First Quarter
Jun 13
Full
Jun 19
Last Quarter

Hourly Weather History & Observations

Time (EEST) Temp. Dew Point Humidity Pressure Visibility Wind Dir Wind Speed Gust Speed Precip Events Conditions
12:20 AM 69.8 °F 50.0 °F 49% 29.95 in - NW 4.6 mph - N/A   Clear
12:50 AM 71.6 °F 48.2 °F 43% 29.95 in - Calm Calm - N/A   Clear
1:20 AM 71.6 °F 48.2 °F 43% 29.95 in - Calm Calm - N/A   Clear
1:50 AM 71.6 °F 48.2 °F 43% 29.92 in - NNW 8.1 mph - N/A   Clear
2:20 AM 68.0 °F 50.0 °F 52% 29.92 in - North 5.8 mph - N/A   Clear
2:50 AM 68.0 °F 50.0 °F 52% 29.92 in - North 5.8 mph - N/A   Clear
3:20 AM 68.0 °F 50.0 °F 52% 29.92 in - North 4.6 mph - N/A   Clear
3:50 AM 68.0 °F 50.0 °F 52% 29.92 in - NNE 4.6 mph - N/A   Clear
4:20 AM 68.0 °F 50.0 °F 52% 29.92 in - NNE 4.6 mph - N/A   Clear
4:50 AM 64.4 °F 50.0 °F 59% 29.92 in - North 5.8 mph - N/A   Clear
5:20 AM 66.2 °F 50.0 °F 56% 29.92 in - North 5.8 mph - N/A   Clear
5:50 AM 68.0 °F 50.0 °F 52% 29.92 in 6.2 mi North 8.1 mph - N/A   Partly Cloudy
6:20 AM 66.2 °F 50.0 °F 56% 29.92 in 6.2 mi North 6.9 mph - N/A   Partly Cloudy
6:50 AM 68.0 °F 51.8 °F 56% 29.92 in 6.2 mi Calm Calm - N/A   Partly Cloudy
7:20 AM 69.8 °F 51.8 °F 53% 29.92 in 6.2 mi NNW 6.9 mph - N/A   Partly Cloudy
7:50 AM 73.4 °F 51.8 °F 47% 29.95 in 6.2 mi North 5.8 mph - N/A   Partly Cloudy
8:20 AM 73.4 °F 51.8 °F 47% 29.95 in 6.2 mi North 5.8 mph - N/A   Partly Cloudy
8:50 AM 75.2 °F 51.8 °F 44% 29.95 in 6.2 mi North 6.9 mph - N/A   Partly Cloudy
9:20 AM 77.0 °F 50.0 °F 39% 29.95 in - Calm Calm - N/A   Clear
9:50 AM 78.8 °F 50.0 °F 36% 29.92 in - Calm Calm - N/A   Clear
10:20 AM 78.8 °F 50.0 °F 36% 29.92 in - North 8.1 mph - N/A   Clear
10:50 AM 80.6 °F 50.0 °F 34% 29.92 in 6.2 mi NNE 8.1 mph - N/A   Partly Cloudy
11:20 AM 82.4 °F 50.0 °F 32% 29.92 in 6.2 mi North 9.2 mph - N/A   Partly Cloudy
11:50 AM 82.4 °F 48.2 °F 30% 29.92 in 6.2 mi NNE 8.1 mph - N/A   Partly Cloudy
12:20 PM 84.2 °F 48.2 °F 29% 29.92 in 6.2 mi North 8.1 mph - N/A   Partly Cloudy
12:50 PM 84.2 °F 48.2 °F 29% 29.92 in 6.2 mi North 6.9 mph - N/A   Partly Cloudy
1:20 PM 84.2 °F 46.4 °F 27% 29.92 in 6.2 mi NNE 6.9 mph - N/A   Partly Cloudy
1:50 PM 84.2 °F 46.4 °F 27% 29.92 in 6.2 mi NNW 10.4 mph - N/A   Partly Cloudy
2:20 PM 84.2 °F 46.4 °F 27% 29.92 in 6.2 mi NNW 9.2 mph - N/A   Partly Cloudy
2:50 PM 84.2 °F 46.4 °F 27% 29.92 in 6.2 mi SW 9.2 mph - N/A   Scattered Clouds
3:20 PM 84.2 °F 46.4 °F 27% 29.92 in 6.2 mi South 12.7 mph - N/A   Scattered Clouds
3:50 PM 82.4 °F 44.6 °F 26% 29.89 in 6.2 mi South 11.5 mph - N/A   Scattered Clouds
4:20 PM 84.2 °F 44.6 °F 25% 29.89 in 6.2 mi South 11.5 mph - N/A   Scattered Clouds
4:50 PM 80.6 °F 44.6 °F 28% 29.89 in 6.2 mi SSW 9.2 mph - N/A   Scattered Clouds
5:20 PM 82.4 °F 44.6 °F 26% 29.89 in 6.2 mi South 9.2 mph - N/A   Scattered Clouds
5:50 PM 80.6 °F 46.4 °F 30% 29.89 in 6.2 mi South 9.2 mph - N/A   Partly Cloudy
6:20 PM 80.6 °F 46.4 °F 30% 29.89 in 6.2 mi South 9.2 mph - N/A   Partly Cloudy
6:50 PM 78.8 °F 44.6 °F 30% 29.89 in 6.2 mi South 8.1 mph - N/A   Partly Cloudy
7:20 PM 77.0 °F 44.6 °F 32% 29.89 in 6.2 mi South 8.1 mph - N/A   Partly Cloudy
7:50 PM 75.2 °F 46.4 °F 36% 29.89 in 6.2 mi South 6.9 mph - N/A   Partly Cloudy
8:20 PM 73.4 °F 51.8 °F 47% 29.89 in 6.2 mi South 4.6 mph - N/A   Partly Cloudy
8:50 PM 71.6 °F 50.0 °F 46% 29.92 in 6.2 mi Calm Calm - N/A   Partly Cloudy
9:20 PM 69.8 °F 50.0 °F 49% 29.92 in 6.2 mi Calm Calm - N/A   Partly Cloudy
9:50 PM 71.6 °F 50.0 °F 46% 29.95 in - Calm Calm - N/A   Clear
10:20 PM 69.8 °F 50.0 °F 49% 29.95 in - Calm Calm - N/A   Clear
10:50 PM 66.2 °F 48.2 °F 52% 29.95 in - Calm Calm - N/A   Clear
11:20 PM 68.0 °F 46.4 °F 46% 29.95 in - Calm Calm - N/A   Clear
11:50 PM 64.4 °F 48.2 °F 56% 29.95 in - Calm Calm - N/A   Clear